Regional Weather Roundup
Issued by NWS

Home | Current Version | Previous Version | Graphics & Text | Print | Product List | Glossary On
Versions: 1 2 3 4 5 6 7 8 9 10 11 12 13 14 15 16 17 18 19 20 21 22 23 24 25 26 27 28 29 30 31 32 33 34 35 36 37 38 39 40 41 42 43 44 45 46 47 48 49 50
000
ASUS43 KBIS 300910
RWRND

NORTH DAKOTA REGIONAL WEATHER ROUNDUP
NATIONAL WEATHER SERVICE BISMARCK ND
400 AM CDT SAT AUG 30 2014

NOTE: "FAIR" INDICATES FEW OR NO CLOUDS BELOW 12,000 FEET WITH NO
SIGNIFICANT WEATHER AND/OR OBSTRUCTIONS TO VISIBILITY.


NDZ001>003-009>011-017-301000-
NORTHWEST NORTH DAKOTA

CITY           SKY/WX    TMP DP  RH WIND       PRES   REMARKS
WILLISTON      CLEAR     57  51  80 SE5       29.93F
MINOT          CLEAR     50  46  86 S5        29.96S
MINOT AFB      CLEAR     47  47  99 SW6       29.96S
$$

NDZ018>021-031>035-040>046-301000-
SOUTHWEST NORTH DAKOTA

CITY           SKY/WX    TMP DP  RH WIND       PRES   REMARKS
BISMARCK       CLEAR     49  49 100 CALM      30.00S
DICKINSON      CLEAR     50  48  93 SE9       29.95F
GARRISON         N/A     49  47  93 CALM      29.98S
HETTINGER ARPT CLEAR     51  49  92 SE5       29.99F
$$

NDZ004>008-012>016-024-026-027-054-301000-
NORTHEAST NORTH DAKOTA

CITY           SKY/WX    TMP DP  RH WIND       PRES   REMARKS
GRAND FORKS    CLEAR     51  50  96 NW9       29.93R
GRND FRKS AFB  CLEAR     51  51  99 N7        29.95R
DEVILS LAKE    CLEAR     45  39  81 N7        29.96S
$$

NDZ022-023-025-028>030-036>039-047>053-301000-
SOUTHEAST NORTH DAKOTA

CITY           SKY/WX    TMP DP  RH WIND       PRES   REMARKS
FARGO          CLOUDY    59  53  80 N12       29.89S
JAMESTOWN      CLEAR     52  50  93 N5        29.96R
$$




USA.gov is the U.S. government's official web portal to all federal, state and local government web resources and services.